Vertical_Velocity
-1 -1 -0 -0 0 -1 0 -0 0 -1 -0 -0 -1 -1 -0 0 -0 -0 -1 0 -1 -1 -1 -0 0 -1 -1 -1 -0 -0 -0 -1 -1 -1 -1 -1 -1 0 -1 -1 -0 -1 -1
-1 -1 -0 -0 1 -1 1 0 -1 -1 -0 -0 -0 -1 -1 -1 0 -0 -0 -1 -0 -1 -2 -1 -1 -1 -1 -1 -0 -1 -1 -0 -1 -1 -1 -1 -1 -1 -1 -2 -2 -0 0
-0 -1 -1 -0 -0 -0 1 1 0 -1 -1 -1 -1 -1 -2 -2 -1 -1 -2 -0 -0 -0 -1 -0 0 -1 -0 -0 -1 -0 -1 -1 -1 -1 -1 -1 -1 -0 -0 -1 -1 -0 -1
0 -0 -1 -1 -0 0 -0 -0 1 -1 -1 -0 -0 -0 -0 -2 -1 -0 -1 -0 -0 -1 -1 -0 -0 -0 -0 -1 -1 -0 -1 -0 -0 -1 -0 -1 -1 -1 -0 -1 -1 -1 -1
0 0 0 -0 -1 0 -0 -1 1 1 0 0 0 -0 -0 -1 -2 -1 -0 -2 -1 -1 -1 -1 -0 -0 -1 -1 -0 -0 -0 -0 -1 0 -1 -1 -1 -1 -1 -2 -1 -0 -1
1 -0 -0 -0 -1 -0 0 0 -0 -1 0 1 -1 -0 -0 -0 -0 -1 -1 -1 -1 -1 -1 -0 -1 -1 -1 -0 -0 -0 -0 0 -1 -1 -2 -1 -2 -1 -1 -0 -1 -1 -1
-0 0 -1 -1 -1 -1 -1 0 1 -0 -2 -1 0 -2 -1 -1 -1 0 -0 -0 -0 -1 0 0 0 -0 0 -0 -0 0 -0 -0 -0 -0 -0 -0 -1 -1 -2 -0 -1 -1 -1
-1 -0 0 -1 -1 -1 -2 -0 -0 1 -1 -2 -0 0 0 -1 -1 -1 -1 -0 -1 -0 -0 -0 0 -1 0 -1 -0 -0 -1 -1 -0 -0 -0 -0 -1 -0 -1 -1 -1 -1 -0
-1 0 -0 -0 -0 -1 -2 -0 -1 -0 1 -1 -1 -1 0 -1 -0 -0 -1 -1 -1 -0 -0 -1 -0 -1 -1 -1 0 -0 -0 -1 -0 -1 -0 -1 -1 -1 -0 -0 -1 -1 -1
-0 1 -1 1 -2 -0 -1 -1 -2 -2 -0 -0 -1 -2 -1 -1 -1 -1 -1 -1 -1 -1 -1 -0 -0 -1 -0 -0 -0 -0 -1 -1 -2 -1 -1 -1 -2 -2 -3 -2 0 0 -1
-2 -0 1 1 -1 -1 -0 0 -0 -1 -2 1 -0 -1 -1 0 -0 -1 -1 -1 -0 -1 -0 -2 -1 -1 -1 -1 -1 -1 -1 -1 -0 -1 -2 -1 -1 -1 -2 -3 -3 -3 -2
-1 -0 -0 3 -1 -2 -1 -1 1 1 -0 -0 1 -0 -1 -0 -1 -0 -1 0 -0 -1 0 -1 -0 -1 -2 -1 -1 -1 -0 -1 -1 -1 -1 -1 -0 1 1 -2 -2 -3 -2
-1 -0 -0 1 -4 1 0 -0 -1 1 0 0 0 -0 0 -1 0 -1 -0 0 0 1 0 -0 -1 0 -0 -0 0 -0 -1 -1 -1 -2 -2 -1 -2 -1 -1 -1 -0 0 -1
1 1 -2 -0 2 1 1 -0 -2 2 0 2 -0 -1 0 1 -0 0 -1 0 -0 1 0 -0 0 1 -0 -1 -0 -1 -0 -1 -2 -2 -0 -1 -1 -1 -1 -1 -1 -1 -0
0 1 -1 -2 0 -2 2 -1 -1 0 0 -0 0 -1 -0 -1 -1 -1 0 -0 0 0 -0 0 -1 -0 -1 0 -1 -1 -0 -1 -1 -1 -1 -2 -1 -1 -2 -1 0 -2 -1
2 2 0 -1 -2 -1 -1 -1 1 1 2 -2 1 1 0 -0 -1 -0 -0 -1 -0 -0 -0 -0 -0 -1 -1 -1 -1 -1 -1 -1 -2 -0 -1 -0 -3 -2 -2 -2 -2 0 0
1 -2 1 -1 1 0 -1 -1 1 1 -0 -1 -2 1 -1 0 0 0 0 0 0 0 -0 -0 -0 -1 -1 -1 -1 -1 -0 -2 1 0 -1 -2 -1 -2 -4 -1 -2 -0 -0
2 0 1 5 -2 -0 0 0 -1 0 1 -1 -0 -0 -1 -0 1 0 -1 -0 -0 -0 0 1 0 1 -0 -1 -1 -1 -1 1 -1 -2 -2 0 -1 -5 2 -3 -3 2 0
1 -1 2 0 -1 1 0 -0 -0 -0 -0 -2 -2 -1 -1 -1 -1 1 -1 -1 0 0 1 1 0 1 1 -1 -1 -1 -2 -1 -1 0 -1 -1 -3 0 -5 -2 1 -3 1
2 1 2 1 -2 1 2 -1 1 0 -1 0 -0 1 1 -1 -1 -0 0 -1 -1 1 1 1 1 1 1 -1 0 0 1 -0 -1 0 0 -3 -2 -2 -1 -4 -1 1 -3
1 2 3 0 -5 0 1 3 -7 1 -1 0 1 -0 1 1 1 0 0 -0 -2 -2 1 1 -0 0 3 -1 1 -1 2 -2 2 4 -3 -1 -5 -0 -1 -0 -0 -3 -0
1 0 0 0 -1 -1 1 -2 1 4 -8 -3 2 1 1 0 1 2 -0 1 -1 1 -1 1 -0 -1 2 -2 -0 -2 5 6 -6 13 -4 -4 -6 -6 -3 -6 -2 1 0
-5 -2 1 -1 0 1 1 -2 -1 -3 3 -7 -1 1 2 -1 0 1 1 1 1 -1 1 -2 -1 -2 0 4 0 -7 -2 2 0 -2 11 -1 -2 -5 -3 -1 -5 -3 -2
2 -3 -1 -0 -2 -0 1 -1 -0 1 -1 1 -7 -5 -0 -1 -0 -0 1 1 -1 0 1 -1 -3 0 -2 -0 4 -1 -4 -3 -3 3 3 -1 2 -6 -4 0 1 -4 -3
0 2 -1 0 -1 2 1 0 -3 -4 -1 2 -0 -2 -1 0 -1 0 -0 1 0 -0 1 1 0 -1 -1 -1 -3 -0 2 -1 -1 -5 1 1 4 -5 -6 3 -1 2 2
-1 2 9 4 4 4 5 1 1 -2 -1 0 1 -3 -4 -2 1 -2 -0 -1 1 2 2 -0 1 0 -1 -0 -2 -2 1 -1 7 -4 -3 -4 1 8 -7 3 -4 1 0
Height
5885 5887 5888 5889 5890 5891 5891 5891 5892 5893 5893 5893 5894 5894 5895 5895 5895 5895 5895 5895 5894 5893 5893 5892 5891 5890 5889 5888 5887 5887 5886 5885 5884 5883 5882 5881 5880 5878 5877 5875 5874 5872 5870
5883 5885 5887 5888 5889 5890 5890 5890 5890 5892 5893 5893 5894 5894 5894 5895 5895 5894 5894 5893 5893 5892 5891 5891 5890 5889 5888 5888 5887 5887 5886 5885 5884 5883 5881 5881 5880 5878 5876 5874 5873 5871 5869
5881 5883 5885 5887 5888 5888 5889 5890 5890 5890 5892 5893 5893 5894 5894 5894 5894 5894 5893 5893 5893 5892 5891 5891 5890 5889 5888 5887 5887 5886 5885 5884 5883 5882 5881 5880 5878 5877 5875 5874 5872 5869 5867
5879 5881 5883 5884 5886 5887 5888 5888 5889 5889 5890 5892 5893 5893 5893 5893 5893 5893 5893 5893 5892 5892 5891 5890 5889 5888 5887 5887 5886 5885 5885 5884 5882 5881 5880 5878 5877 5875 5874 5872 5870 5868 5866
5877 5879 5880 5882 5884 5885 5886 5886 5888 5888 5889 5890 5891 5892 5892 5892 5892 5892 5892 5891 5891 5891 5890 5889 5888 5887 5887 5886 5885 5884 5884 5883 5881 5880 5879 5877 5876 5874 5873 5871 5869 5866 5864
5874 5877 5879 5880 5882 5883 5884 5884 5887 5888 5888 5889 5890 5890 5891 5892 5891 5891 5890 5890 5890 5889 5888 5888 5887 5886 5886 5885 5884 5883 5882 5881 5880 5879 5877 5876 5874 5873 5871 5869 5867 5864 5861
5871 5874 5876 5878 5880 5881 5883 5884 5885 5886 5888 5889 5888 5889 5890 5890 5890 5890 5889 5889 5888 5888 5887 5887 5886 5885 5884 5884 5883 5882 5881 5880 5878 5877 5875 5873 5872 5870 5868 5866 5864 5861 5859
5869 5871 5874 5876 5878 5879 5881 5882 5884 5885 5886 5887 5888 5888 5889 5889 5889 5889 5888 5887 5887 5886 5886 5885 5884 5883 5883 5882 5882 5881 5880 5878 5877 5875 5873 5872 5870 5867 5866 5864 5861 5858 5856
5866 5869 5872 5874 5875 5876 5878 5880 5882 5883 5885 5886 5886 5886 5887 5887 5887 5887 5887 5886 5886 5885 5884 5883 5883 5882 5881 5881 5880 5879 5878 5876 5875 5873 5871 5869 5867 5864 5863 5861 5858 5855 5853
5863 5866 5869 5871 5872 5874 5876 5877 5879 5880 5883 5884 5884 5884 5885 5886 5885 5885 5885 5885 5884 5883 5882 5881 5880 5880 5879 5879 5878 5876 5875 5874 5873 5871 5868 5866 5864 5861 5858 5856 5854 5851 5849
5858 5861 5865 5868 5870 5871 5873 5874 5876 5877 5879 5882 5883 5882 5883 5883 5883 5883 5883 5882 5882 5881 5880 5879 5878 5877 5877 5876 5875 5874 5872 5871 5869 5868 5866 5863 5861 5859 5855 5852 5849 5847 5844
5853 5857 5860 5863 5866 5868 5870 5871 5873 5875 5876 5878 5880 5880 5880 5881 5881 5881 5881 5881 5881 5880 5878 5877 5876 5876 5875 5874 5873 5871 5869 5868 5866 5865 5863 5860 5857 5855 5853 5849 5847 5843 5840
5848 5853 5856 5858 5862 5864 5867 5868 5869 5872 5874 5875 5876 5878 5878 5878 5878 5879 5879 5879 5879 5878 5877 5876 5875 5874 5872 5871 5869 5868 5867 5865 5863 5861 5859 5856 5853 5851 5849 5846 5843 5839 5835
5845 5849 5852 5856 5858 5860 5862 5864 5865 5868 5871 5871 5873 5874 5875 5875 5875 5875 5876 5876 5876 5875 5874 5873 5872 5871 5870 5868 5867 5865 5863 5861 5859 5857 5855 5851 5849 5846 5843 5840 5837 5834 5830
5841 5844 5847 5850 5853 5855 5858 5860 5862 5863 5866 5868 5869 5870 5870 5871 5871 5872 5872 5872 5872 5872 5871 5870 5869 5868 5867 5865 5863 5862 5860 5857 5855 5852 5849 5846 5843 5840 5837 5834 5831 5828 5824
5836 5839 5841 5845 5847 5851 5854 5855 5858 5860 5861 5863 5864 5866 5866 5867 5868 5868 5867 5867 5868 5867 5867 5866 5865 5863 5862 5861 5859 5857 5855 5853 5850 5847 5844 5841 5837 5834 5831 5828 5825 5822 5818
5829 5832 5836 5841 5844 5846 5849 5851 5853 5855 5857 5858 5859 5860 5861 5862 5863 5863 5863 5863 5862 5862 5862 5861 5860 5859 5857 5856 5854 5852 5850 5847 5844 5841 5838 5835 5832 5828 5825 5822 5818 5815 5812
5823 5827 5831 5835 5838 5841 5844 5846 5848 5850 5851 5853 5854 5855 5857 5857 5858 5858 5858 5858 5858 5857 5857 5856 5855 5854 5852 5850 5849 5846 5844 5841 5837 5834 5831 5829 5825 5822 5819 5814 5810 5808 5804
5817 5821 5824 5829 5832 5834 5837 5841 5842 5844 5845 5847 5848 5850 5852 5853 5854 5854 5853 5853 5853 5852 5852 5850 5849 5848 5847 5845 5843 5840 5837 5834 5831 5828 5825 5821 5818 5815 5811 5807 5804 5800 5797
5811 5814 5818 5822 5825 5828 5831 5834 5837 5838 5839 5840 5843 5845 5846 5847 5848 5848 5848 5848 5847 5847 5846 5844 5843 5842 5841 5838 5836 5834 5831 5828 5824 5820 5817 5813 5810 5807 5803 5799 5796 5792 5789
5805 5808 5812 5815 5818 5821 5825 5827 5830 5831 5832 5834 5837 5839 5839 5841 5841 5842 5842 5843 5842 5840 5840 5839 5837 5836 5834 5831 5829 5826 5823 5820 5817 5814 5809 5806 5802 5800 5795 5792 5788 5785 5782
5797 5801 5804 5808 5811 5815 5818 5820 5822 5823 5827 5829 5831 5832 5833 5834 5834 5835 5835 5835 5835 5834 5833 5831 5830 5828 5826 5823 5821 5818 5816 5814 5809 5808 5802 5797 5794 5790 5787 5783 5780 5777 5774
5788 5793 5797 5800 5803 5807 5811 5813 5815 5817 5820 5822 5824 5825 5826 5826 5826 5826 5827 5827 5827 5826 5826 5823 5822 5820 5818 5816 5813 5809 5806 5804 5802 5799 5797 5790 5785 5781 5778 5774 5771 5768 5765
5780 5784 5788 5792 5795 5799 5802 5805 5808 5810 5811 5814 5815 5816 5817 5818 5818 5818 5818 5818 5818 5818 5817 5815 5813 5811 5809 5807 5805 5802 5798 5796 5793 5791 5787 5781 5777 5772 5769 5766 5763 5760 5756
5771 5775 5779 5783 5786 5790 5793 5796 5799 5801 5802 5804 5805 5806 5807 5808 5809 5809 5809 5809 5808 5808 5807 5806 5805 5803 5801 5798 5797 5794 5791 5788 5784 5781 5778 5774 5770 5763 5760 5758 5755 5752 5749
5762 5766 5770 5774 5778 5781 5784 5786 5788 5791 5793 5794 5795 5796 5797 5798 5799 5799 5799 5799 5799 5799 5798 5797 5796 5794 5792 5789 5787 5785 5782 5779 5776 5772 5768 5765 5762 5757 5751 5749 5746 5742 5739